Sparta, WI

10:41 PM CST on January 23, 2018 (GMT -0600)
Sparta-Fort McCoy

Weather History for KCMY - May, 2013

Change the Weather History Date:

Friday, May 24, 2013

  Actual Average Record
Temperature  
Mean Temperature 49 °F -  
Max Temperature 67 °F 71 °F 90 °F (1972)
Min Temperature 31 °F 49 °F 31 °F (1956)
Degree Days  
Heating Degree Days 16    
Moisture  
Dew Point 36 °F    
Average Humidity 62    
Maximum Humidity 100    
Minimum Humidity 29    
Precipitation  
Precipitation 0.00 in - - ()
Sea Level Pressure  
Sea Level Pressure 30.36 in    
Wind  
Wind Speed 2 mph (ESE)    
Max Wind Speed 9 mph    
Max Gust Speed -    
Visibility 10 miles    
Events      
Averages and records for this station are not official NWS values.
T = Trace of Precipitation, MM = Missing Value Source: NWS Daily Summary

Daily Weather History Graph

Daily Weather History Graph

Search for Another Location

Airport or City:

Trip Planner

Search our weather history database for the weather conditions in past years. The results will help you decide how hot, cold, wet, or windy it might be!

Date:

Astronomy

May. 24, 2013 Rise Set
Actual Time 5:28 AM CDT 8:31 PM CDT
Civil Twilight 4:53 AM CDT 9:06 PM CDT
Nautical Twilight 4:09 AM CDT 9:50 PM CDT
Astronomical Twilight 3:17 AM CDT 10:43 PM CDT
Moon 8:13 PM CDT 5:02 AM CDT
Length of Visible Light 16h 12m
Length of Day
15h 03m
Full, 100% of the Moon is Illuminated
May 24
Full
May 24
Full
May 31
Last Quarter
Jun 8
New
Jun 16
First Quarter

Hourly Weather History & Observations

Time (CDT) Temp. Windchill Dew Point Humidity Pressure Visibility Wind Dir Wind Speed Gust Speed Precip Events Conditions
12:15 AM 36.9 °F - 35.4 °F 95% 30.34 in 10.0 mi Calm Calm - N/A   Unknown
12:35 AM 37.6 °F - 36.0 °F 94% 30.34 in 10.0 mi Calm Calm - N/A   Unknown
12:55 AM 36.5 °F - 34.5 °F 93% 30.35 in 10.0 mi Calm Calm - N/A   Unknown
1:15 AM 35.6 °F - 34.7 °F 97% 30.35 in 10.0 mi Calm Calm - N/A   Unknown
1:35 AM 36.0 °F - 35.4 °F 98% 30.35 in 10.0 mi Calm Calm - N/A   Unknown
1:55 AM 35.2 °F - 34.3 °F 97% 30.36 in 10.0 mi Calm Calm - N/A   Unknown
2:15 AM 34.2 °F - 33.8 °F 99% 30.36 in 10.0 mi Calm Calm - N/A   Unknown
2:35 AM 34.2 °F - 33.4 °F 97% 30.37 in 10.0 mi Calm Calm - N/A   Unknown
2:55 AM 33.8 °F - 33.4 °F 99% 30.37 in 10.0 mi Calm Calm - N/A   Unknown
3:15 AM 34.0 °F - 33.8 °F 99% 30.37 in 10.0 mi Calm Calm - N/A   Unknown
3:35 AM 32.9 °F - 32.2 °F 97% 30.37 in 10.0 mi Calm Calm - N/A   Unknown
3:55 AM 33.1 °F - 32.5 °F 98% 30.37 in 10.0 mi Calm Calm - N/A   Unknown
4:15 AM 32.0 °F - 31.8 °F 99% 30.38 in 10.0 mi Calm Calm - N/A   Unknown
4:35 AM 32.0 °F - 32.0 °F 100% 30.39 in 10.0 mi Calm Calm - N/A   Unknown
4:55 AM 32.0 °F - 32.0 °F 100% 30.39 in 10.0 mi Calm Calm - N/A   Unknown
5:15 AM 31.1 °F - 31.1 °F 100% 30.40 in 10.0 mi Calm Calm - N/A   Unknown
5:35 AM 31.3 °F - 31.3 °F 100% 30.40 in 10.0 mi Calm Calm - N/A   Unknown
5:55 AM 31.5 °F - 31.5 °F 100% 30.41 in 10.0 mi Calm Calm - N/A   Unknown
6:15 AM 32.0 °F 28.7 °F 32.0 °F 100% 30.41 in 10.0 mi ENE 3.5 mph - N/A   Unknown
6:35 AM 34.3 °F - 34.2 °F 99% 30.41 in 10.0 mi Calm Calm - N/A   Unknown
6:55 AM 38.7 °F - 37.6 °F 96% 30.42 in 10.0 mi Calm Calm - N/A   Unknown
7:15 AM 41.2 °F - 38.1 °F 89% 30.43 in 10.0 mi Calm Calm - N/A   Unknown
7:35 AM 43.5 °F - 36.5 °F 76% 30.43 in 10.0 mi Calm Calm - N/A   Unknown
7:55 AM 45.5 °F - 36.9 °F 72% 30.44 in 10.0 mi Calm Calm - N/A   Unknown
8:15 AM 47.8 °F - 36.7 °F 65% 30.45 in 10.0 mi Calm Calm - N/A   Unknown
8:35 AM 49.8 °F - 37.0 °F 61% 30.45 in 10.0 mi East 4.6 mph - N/A   Unknown
8:55 AM 50.7 °F - 36.9 °F 59% 30.45 in 10.0 mi ESE 3.5 mph - N/A   Unknown
9:15 AM 51.3 °F - 35.2 °F 54% 30.46 in 10.0 mi SSE 3.5 mph - N/A   Unknown
9:35 AM 52.9 °F - 34.7 °F 50% 30.46 in 10.0 mi ESE 4.6 mph - N/A   Unknown
9:55 AM 53.8 °F - 34.2 °F 47% 30.45 in 10.0 mi ESE 4.6 mph - N/A   Unknown
10:15 AM 54.0 °F - 33.6 °F 46% 30.44 in 10.0 mi Calm Calm - N/A   Unknown
10:35 AM 54.5 °F - 32.9 °F 44% 30.43 in 10.0 mi NE 3.5 mph - N/A   Unknown
10:55 AM 56.3 °F - 33.6 °F 42% 30.43 in 10.0 mi East 3.5 mph - N/A   Unknown
11:15 AM 56.5 °F - 32.7 °F 41% 30.43 in 10.0 mi Calm Calm - N/A   Unknown
11:35 AM 57.9 °F - 33.8 °F 40% 30.42 in 10.0 mi SSE 6.9 mph - N/A   Unknown
11:55 AM 59.0 °F - 33.6 °F 38% 30.41 in 10.0 mi SE 4.6 mph - N/A   Unknown
12:15 PM 60.1 °F - 34.3 °F 38% 30.40 in 10.0 mi East 9.2 mph - N/A   Unknown
12:35 PM 60.8 °F - 33.6 °F 36% 30.39 in 10.0 mi ENE 4.6 mph - N/A   Unknown
12:55 PM 61.7 °F - 34.3 °F 36% 30.39 in 10.0 mi ESE 5.8 mph - N/A   Unknown
1:15 PM 61.5 °F - 32.0 °F 33% 30.38 in 10.0 mi ESE 4.6 mph - N/A   Unknown
1:35 PM 63.0 °F - 33.6 °F 33% 30.37 in 10.0 mi East 5.8 mph - N/A   Unknown
1:55 PM 62.8 °F - 33.3 °F 33% 30.36 in 10.0 mi West 3.5 mph - N/A   Unknown
2:15 PM 64.0 °F - 34.5 °F 33% 30.36 in 10.0 mi SSE 4.6 mph - N/A   Unknown
2:35 PM 64.2 °F - 34.3 °F 33% 30.35 in 10.0 mi South 5.8 mph - N/A   Unknown
2:55 PM 64.9 °F - 34.3 °F 32% 30.33 in 10.0 mi ENE 4.6 mph - N/A   Unknown
3:15 PM 65.8 °F - 35.2 °F 32% 30.32 in 10.0 mi SSE 6.9 mph - N/A   Unknown
3:35 PM 66.0 °F - 34.3 °F 31% 30.31 in 10.0 mi East 9.2 mph - N/A   Unknown
3:55 PM 65.5 °F - 33.6 °F 31% 30.31 in 10.0 mi East 6.9 mph - N/A   Unknown
4:15 PM 67.1 °F - 34.0 °F 29% 30.30 in 10.0 mi ESE 8.1 mph - N/A   Unknown
4:35 PM 65.5 °F - 32.9 °F 30% 30.30 in 10.0 mi SE 9.2 mph - N/A   Unknown
4:55 PM 66.7 °F - 33.6 °F 29% 30.29 in 10.0 mi South 5.8 mph - N/A   Unknown
5:15 PM 66.0 °F - 36.1 °F 33% 30.28 in 10.0 mi SE 8.1 mph - N/A   Unknown
5:35 PM 66.7 °F - 34.3 °F 30% 30.28 in 10.0 mi ESE 6.9 mph - N/A   Unknown
5:55 PM 65.7 °F - 34.0 °F 31% 30.29 in 10.0 mi South 8.1 mph - N/A   Unknown
6:15 PM 64.8 °F - 32.9 °F 30% 30.28 in 10.0 mi SSW 6.9 mph - N/A   Unknown
6:35 PM 64.4 °F - 32.5 °F 30% 30.29 in 10.0 mi SSW 5.8 mph - N/A   Unknown
6:55 PM 63.7 °F - 35.2 °F 35% 30.30 in 10.0 mi South 3.5 mph - N/A   Unknown
7:15 PM 63.1 °F - 36.3 °F 37% 30.32 in 10.0 mi Calm Calm - N/A   Unknown
7:35 PM 63.0 °F - 36.7 °F 38% 30.32 in 10.0 mi Calm Calm - N/A   Unknown
7:55 PM 61.9 °F - 38.1 °F 41% 30.31 in 10.0 mi Calm Calm - N/A   Unknown
8:15 PM 59.9 °F - 39.2 °F 46% 30.32 in 10.0 mi Calm Calm - N/A   Unknown
8:35 PM 57.0 °F - 41.5 °F 56% 30.31 in 10.0 mi Calm Calm - N/A   Unknown
8:55 PM 52.9 °F - 44.6 °F 73% 30.31 in 10.0 mi Calm Calm - N/A   Unknown
9:15 PM 53.2 °F - 44.1 °F 71% 30.31 in 10.0 mi Calm Calm - N/A   Unknown
9:35 PM 52.5 °F - 45.1 °F 76% 30.31 in 10.0 mi East 3.5 mph - N/A   Unknown
9:55 PM 52.5 °F - 44.4 °F 74% 30.31 in 10.0 mi East 4.6 mph - N/A   Unknown
10:15 PM 52.5 °F - 44.6 °F 74% 30.31 in 10.0 mi East 4.6 mph - N/A   Unknown
10:35 PM 52.5 °F - 43.5 °F 71% 30.31 in 10.0 mi ESE 5.8 mph - N/A   Unknown
10:55 PM 52.7 °F - 43.2 °F 70% 30.30 in 10.0 mi ESE 4.6 mph - N/A   Unknown
11:15 PM 52.7 °F - 42.8 °F 69% 30.31 in 10.0 mi Calm Calm - N/A   Unknown
11:35 PM 52.9 °F - 42.4 °F 68% 30.30 in 10.0 mi Calm Calm - N/A   Unknown
11:55 PM 53.8 °F - 42.1 °F 65% 30.30 in 10.0 mi Calm Calm - N/A   Unknown